Location: Goettingen
(51.5300°N, 9.9433°E)
Time: 05:32:13
(UTC+02:00)

ISS - Pass Details

Date: 14 September 2018
Orbit: 403 x 408 km, 51.6° (Epoch: 25 September)

Event Time Altitude Azimuth Distance (km) Brightness Sun altitude
Exits shadow 04:16:03 31° 102° (ESE) 745 -2.2 -23.0°
Drops below altitude 10° 04:17:53 10° 101° (E) 1,463 -0.5 -22.8°
Sets 04:19:58 0° 101° (E) 2,320 0.6 -22.6°
